Location: Aytr�
(46.1357°N, 1.1145°W)
Time: 14:57:24
(UTC+00:00)

Cosmos 1943 Rocket - Pass Details

Date: 03 March 2021
Orbit: 811 x 844 km, 71.0° (Epoch: 19 April)

Event Time Altitude Azimuth Distance (km) Brightness Sun altitude
Rises 20:43:18 0° 340° (NNW) 3,414 5.9 -29.6°
Reaches altitude 10° 20:46:30 10° 358° (N) 2,475 4.9 -30.1°
Enters shadow 20:48:43 17° 20° (NNE) 2,021 4.2 -30.4°
